Regional Weather Roundup
Issued by NWS

Home | Current Version | Previous Version | Graphics & Text | Print | Product List | Glossary On
Versions: 1 2 3 4 5 6 7 8 9 10 11 12 13 14 15 16 17 18 19 20 21 22 23 24 25 26 27 28 29 30 31 32 33 34 35 36 37 38 39 40 41 42 43 44 45 46 47 48 49 50
000
ASUS43 KMPX 162301
RWRMN
WEATHER ROUNDUP FOR MINNESOTA
NATIONAL WEATHER SERVICE TWIN CITIES/CHANHASSEN MN
500 PM CST SAT DEC 16 2017


NOTE: "FAIR" INDICATES FEW OR NO CLOUDS BELOW 12,000 FEET WITH NO
SIGNIFICANT WEATHER AND/OR OBSTRUCTIONS TO VISIBILITY. N/A MEANS
CURRENT SKY AND/OR WEATHER CONDITIONS ARE NOT AVAILABLE.

MNZ060>063-068>070-170000-
   Twin Cities Metro

CITY           SKY/WX    TMP DP  RH WIND       PRES   REMARKS
TWIN CITIES    CLOUDY    28  22  78 E9        30.00R WCI  19
ST PAUL        CLOUDY    28  21  75 NE7       30.02R WCI  21
CRYSTAL        CLOUDY    28  20  71 NE5       30.00R WCI  23
BLAINE         CLOUDY    28  23  80 NE6       30.01R WCI  22
LAKEVILLE      CLOUDY    27  25  93 NE6       29.98S WCI  20
EDEN PRAIRIE   CLOUDY    29  23  78 NE6       29.98R WCI  23
SOUTH ST PAUL  PTCLDY    28  21  75 NE3       30.00S
LAKE ELMO      CLOUDY    28  21  74 E6        30.02S WCI  22
$$
MNZ001>005-007-008-013>017-022>024-027-028-170000-
   Northwest Minnesota

CITY           SKY/WX    TMP DP  RH WIND       PRES   REMARKS
BEMIDJI        CLOUDY    23  19  85 S5        29.96R WCI  17
HALLOCK        CLOUDY    23  19  86 NW7       29.97R WCI  15
ROSEAU         CLOUDY    18  14  86 CALM      29.96R FOG
WARROAD        CLOUDY    16  12  86 SE3       29.96R FOG
CROOKSTON      CLOUDY    23  21  93 CALM      29.98R
FOSSTON        CLOUDY    25  23  93 W9        29.96R FOG     WCI  15
DETROIT LAKES  CLOUDY    30  28  93 W6        29.98R WCI  24
MOORHEAD       CLOUDY    28  25  86 CALM      30.00R
PARK RAPIDS    CLOUDY    25  21  85 S3        29.96R
MAHNOMEN       CLOUDY    27  25  95 W7        29.96R FOG     WCI  19
$$
MNZ006-009>011-018-025>026-170000-
   North Central Minnesota

CITY           SKY/WX    TMP DP  RH WIND       PRES   REMARKS
BAUDETTE       CLOUDY    11  10  96 SE6       29.96R WCI   1
FLAG ISLAND    LGT SNOW  10   9  92 S9        29.96R WCI  -2
INTL FALLS     CLOUDY    11   8  88 E5        30.00R FOG     WCI   3
WASKISH        CLOUDY    19  18  93 CALM      29.96S
BIG FORK       CLOUDY    19  18  93 CALM      29.97S
LONGVILLE      CLOUDY    21  16  79 CALM      29.98R
GRAND RAPIDS   CLOUDY    21  15  78 SE8       30.00R WCI  11
CRANE LAKE     CLOUDY    12  10  92 CALM      30.03R
ORR            CLOUDY    16  10  79 CALM      29.96R
COOK           CLOUDY    16  12  86 CALM      29.99R
WALKER         CLOUDY    22  18  81 CALM      29.97R
$$
MNZ012-019>021-037-170000-
   Northeast Minnesota

CITY           SKY/WX    TMP DP  RH WIND       PRES   REMARKS
DULUTH         CLOUDY    21  15  78 SE13      30.00R WCI   9
ELY            CLOUDY    19  16  86 SE6       30.01R WCI  11
HIBBING        CLOUDY    19  15  84 SE10      29.98S WCI   7
EVELETH        CLOUDY    20  14  77 SE5       30.01R WCI  13
DULUTH HARBOR  CLOUDY    25  16  68 E10       30.07R WCI  15
TWO HARBORS    CLOUDY    27  18  69 E6        30.02R WCI  20
SILVER BAY     CLOUDY    23  18  80 E3        30.03R
GRAND MARAIS     N/A     21  15  78 N8        30.10R WCI  11
G MARAIS ARPRT CLOUDY    12   9  85 E6        30.01S WCI   3
$$
MNZ029>031-032-039>041-046>048-054>057-064-170000-
   West Central Minnesota

CITY           SKY/WX    TMP DP  RH WIND       PRES   REMARKS
FERGUS FALLS   CLOUDY    28  27  93 CALM      30.01R
WHEATON        CLOUDY    30  28  93 N6        30.01R WCI  24
MORRIS         CLOUDY    30  28  93 N3        29.97R
ALEXANDRIA     CLOUDY    28  25  88 N5        29.97R WCI  23
ELBOW LAKE     MOCLDY    28  26  94 W5        29.99R FOG     WCI  22
WADENA         CLOUDY    25  21  86 CALM      29.97S
GLENWOOD       PTCLDY    28  27  93 NE6       29.97S WCI  22
APPLETON       CLOUDY    34  28  80 CALM      29.99R
BENSON         CLOUDY    30  27  86 SE3       30.00R
ORTONVILLE     CLOUDY    32  28  86 CALM      29.99R
MADISON        CLOUDY    36  30  80 NE3       29.99R
WILLMAR        CLOUDY    28  27  93 NE6       29.99S WCI  22
$$
MNZ033>034-036-042>043-049>051-058-059-170000-
   Central Minnesota

CITY           SKY/WX    TMP DP  RH WIND       PRES   REMARKS
ST CLOUD       CLOUDY    24  20  84 E5        30.01R WCI  18
SAUK CENTRE    CLOUDY    26  24  91 NE5       29.99R WCI  20
PAYNESVILLE    CLOUDY    26  26  96 NE5       30.00R WCI  21
AITKIN         CLOUDY    21  16  79 E3        29.98R
PINE RIVER     CLOUDY    21  16  79 CALM      30.01S
BRAINERD       CLOUDY    23  17  78 CALM      29.99R
STAPLES        CLOUDY    25  19  80 CALM      29.98R
LITTLE FALLS   CLOUDY    27  18  69 CALM      30.01R
LITCHFIELD     CLOUDY    28  27  93 NE3       30.00R
BUFFALO        CLOUDY    27  23  85 N3        30.02R
MAPLE LAKE     CLOUDY    28  24  87 NE5       30.02R WCI  22
HUTCHINSON     CLOUDY    29  26  88 N9        29.99S WCI  20
$$
MNZ037-044-045-052-053-170000-
   East Central Minnesota

CITY           SKY/WX    TMP DP  RH WIND       PRES   REMARKS
PRINCETON      CLOUDY    25  19  80 N3        30.02R
MORA           CLOUDY    21  18  86 CALM      30.04R
CAMBRIDGE      CLOUDY    25  16  68 NE3       30.02R
RUSH CITY      CLOUDY    20  15  81 NE5       30.02R WCI  14
MOOSE LAKE     CLOUDY    21  14  73 CALM      30.00R
HINCKLEY       CLOUDY    23  18  80 E3        30.02R
CLOQUET        CLOUDY    19  12  73 SE6       30.01R WCI  11
MCGREGOR       CLOUDY    23  18  80 E5        30.01R WCI  17
$$
MNZ071>073-080-081-089-090-097-098-170000-
   Southwest Minnesota

CITY           SKY/WX    TMP DP  RH WIND       PRES   REMARKS
MONTEVIDEO     PTCLDY    30  27  86 CALM      29.99R
GRANITE FALLS  MOCLDY    33  29  83 N7        29.99R WCI  27
CANBY          CLOUDY    37  32  82 N5        29.99R
MARSHALL       CLOUDY    33  28  81 N6        29.98R WCI  28
REDWOOD FALLS  CLOUDY    33  27  78 N7        29.98R WCI  27
OLIVIA         CLOUDY    30  27  86 NE6       29.98R WCI  24
PIPESTONE      CLOUDY    36  28  75 NE8       29.93S
WINDOM           N/A     34  21  60 NE5       29.96R WCI  30
WORTHINGTON    PTCLDY    35  28  75 N9        29.94R WCI  28
JACKSON        CLOUDY    34  28  80 N8        29.94F WCI  27
SLAYTON        CLOUDY    35  30  82 N8        29.95R WCI  29
$$
MNZ065>067-074>077-082>085-091>093-170000-
   South Central Minnesota

CITY           SKY/WX    TMP DP  RH WIND       PRES   REMARKS
MANKATO        CLOUDY    29  27  92 NE7       29.98R WCI  22
NEW ULM          N/A     30  25  80 NE7       29.98R VSB 1   WCI  23
ST JAMES       PTCLDY    32  27  80 N5        29.99R WCI  27
FAIRMONT       CLOUDY    34  28  79 N8        29.96R WCI  27
GLENCOE        CLOUDY    29  30 100 N5        29.98R WCI  24
FARIBAULT      CLOUDY    28  27  93 N7        29.98R WCI  21
OWATONNA       MOCLDY    30  27  86 NE7       29.97R WCI  23
WASECA         PTCLDY    32  28  86 N9        29.97R WCI  24
ALBERT LEA     CLOUDY    36  27  69 NE5       29.95R
$$
MNZ078>079-086>088-094>096-170000-
   Southeast Minnesota

CITY           SKY/WX    TMP DP  RH WIND       PRES   REMARKS
ROCHESTER      PTCLDY    28  26  92 NE8       29.95R WCI  20
RED WING       PTCLDY    27  18  69 NE7       30.00R WCI  19
STANTON        CLOUDY    29  26  86 NE8       29.98R WCI  21
DODGE CENTER   CLOUDY    28  27  93 NE8       29.96R WCI  20
WINONA           N/A     30  23  74 CALM      30.01R
AUSTIN         PTCLDY    34  28  80 CALM      29.94R
PRESTON        PTCLDY    29  25  83 NE8       29.95R WCI  21
$$
ABBREVIATIONS USED IN REMARKS
   TC - TEMPERATURES IN CELSIUS
  WCI - WIND CHILL INDEX
   HX - HEAT INDEX
  VSB - VISIBILITY
$$




USA.gov is the U.S. government's official web portal to all federal, state and local government web resources and services.